Preview of NWS' New Version of Forecast
This preview is not operational and should not be used for support decisions.

Regional Weather Roundup (RWR)

Issued by National Weather Service (NWS)

                            
000
ASUS42 KTBW 202218
RWRFL 
FLORIDA REGIONAL WEATHER ROUNDUP
NATIONAL WEATHER SERVICE TAMPA BAY RUSKIN FL
500 PM EST WED FEB 20 2019

NOTE: "FAIR" INDICATES FEW OR NO CLOUDS BELOW 12,000 FEET WITH NO
SIGNIFICANT WEATHER AND/OR OBSTRUCTIONS TO VISIBILITY.

FLZ001>010-012>015-112-114-115-202300-
PANHANDLE FLORIDA
  
CITY           SKY/WX    TMP DP  RH WIND       PRES   REMARKS
PENSACOLA      FOG       70  69  97 S12       29.95R VSB 1/2          
PENSACOLA NAS  FOG       69  69 100 S8        29.94R VSB 1/4          
MILTON NAS     CLOUDY    71  71 100 S15       29.96  FOG              
CRESTVIEW      CLOUDY    71  68  90 S12       29.99R FOG              
DUKE FIELD     CLOUDY    69  69 100 S12       29.97S FOG              
VALPARAISO     FOG       69  69 100 SE10      29.96S VSB 3/8          
MARY ESTHER    FOG       68  67  96 SE10      29.95  VSB 1/4          
PANAMA CITY    CLOUDY    70  68  93 SE14      29.99S FOG              
TYNDALL AFB    CLOUDY    72  69  90 SE20      29.99S FOG              
APALACHICOLA   FOG       68  67  96 SE9       30.02R VSB 1/4          

STATION/POSITION SKY/WX   TEMP    WIND        PRES    WAVE   SWELL
                          AIR SEA DIR/SP/G            HT/PER HT/PER
                          (F)     (DEG/KT/KT) (MB)    (FT/S) (FT/S)
30.1N   87.6W              68     160/ 12/ 14   N/A     5/ 6   3/ 6
29.2N   88.2W                     180/ 10/ 12 1013.9R   5/ 7   5/ 7
PANAMA CITY BEAC           65 63  130/ 12/ 13 1015.9R
TOWER C                    67     160/ 16/ 16 1016.6R

$$
FLZ011-016>038-118-127-128-134-139-239-202300-
NORTH FLORIDA
  
CITY           SKY/WX    TMP DP  RH WIND       PRES   REMARKS
MARIANNA       CLOUDY    75  69  81 SE7       30.00S                  
TALLAHASSEE    CLOUDY    74  69  85 S7        30.04S                  
PERRY          PTSUNNY   80  70  72 SW15      30.06R                  
LIVE OAK       PTSUNNY   81  66  61 S9        30.04S                  
CROSS CITY     FAIR      79  69  70 S16G23    30.06R                  
LAKE CITY      PTSUNNY   81  63  54 SW9G17    30.05S                  
GAINESVILLE    CLOUDY    85  69  58 CALM      30.06S                  
WILLISTON        N/A    N/A N/A N/A MISG        N/A                   
PALATKA        CLOUDY    82  68  61 S5        30.05R                  
MAYPORT NAS    PTSUNNY   71  66  84 SE17      30.05S                  
JACKSONVILLE   PTSUNNY   75  68  78 N9        30.06R                  
JAX NAS        PTSUNNY   80  70  71 SE7       30.05R                  
JAX CECIL      PTSUNNY   82  70  65 N8        30.04R                  
FERNANDINA BEA CLOUDY    68  65  90 SE12G17   30.07R                  
ST AUGUSTINE   PTSUNNY   76  68  76 SE12      30.07R HAZE             
PALM COAST       N/A     79  70  73 SE9       30.05S                  

STATION/POSITION SKY/WX   TEMP    WIND        PRES    WAVE   SWELL
                          AIR SEA DIR/SP/G            HT/PER HT/PER
                          (F)     (DEG/KT/KT) (MB)    (FT/S) (FT/S)
SHELL POINT      NOT AVBL
KEATON BEACH               71     170/ 12/ 13 1017.9S
CEDAR KEY        NOT AVBL
FERNANDINA                 68 63  100/  4/  6 1018.9R
30.7N   81.3W                 60                N/A     5/ 8   2/11
MAYPORT                    71 63  160/  7/ 14 1017.9R
31.4N   80.9W              60 59   30/  6/  8 1019.1R   5/ 8   5/ 8
ST AUGUSTINE               65 61  170/ 13/ 14 1018.0R

$$
FLZ040-043>046-052-053-057-058-063-144-202300-
INTERIOR CENTRAL FLORIDA
  
CITY           SKY/WX    TMP DP  RH WIND       PRES   REMARKS
OCALA          CLOUDY    82  68  62 SW9       30.05R                  
LEESBURG       PTSUNNY   82  68  62 SE8       30.05S                  
SANFORD        PTSUNNY   83  71  67 SE13      30.04S                  
ORLANDO EXEC   PTSUNNY   84  66  54 S10       30.04S                  
ORLANDO INTL   PTSUNNY   85  66  53 SE13      30.04S                  
KISSIMMEE      CLOUDY    83  68  60 S10       30.06R                  
WINTER HAVEN   PTSUNNY   85  67  54 S12       30.05S                  
LAKELAND       PTSUNNY   84  66  54 S12       30.05R                  
BARTOW         PTSUNNY   82  68  61 S10       30.04S                  
SEBRING        FAIR      83  63  50 SE15      30.05S                  
OKEECHOBEE     FAIR      82  64  54 S13       30.05S                  

$$
FLZ041-047-054-059-064-141-147-202300-
EAST CENTRAL FLORIDA
  
CITY           SKY/WX    TMP DP  RH WIND       PRES   REMARKS
ORMOND BEACH   PTSUNNY   81  73  78 SE12      30.06S                  
DAYTONA BEACH  PTSUNNY   79  72  79 VRB5      30.06S                  
DELAND         PTSUNNY   81  70  69 SE8       30.05R                  
NEW SMYRNA BEA PTSUNNY   81  68  65 S17G23    30.07S                  
JFK SPACE CTR  FAIR     N/A N/A N/A S17G23    30.08R                  
TITUSVILLE     MOSUNNY   81  70  69 S14G23    30.07S                  
CAPE CANAVERAL FAIR      75  69  81 SE15      30.06S                  
PATRICK AFB    FAIR      73  70  91 SE13      30.07R                  
MELBOURNE      FAIR      79  69  71 SE15      30.06S                  
VERO BEACH     FAIR      79  70  74 SE17G25   30.07S                  
FT PIERCE      FAIR      80  69  69 SE16G25   30.06F                  
STUART         MOSUNNY   81  66  61 SE20G29   30.09R                  

STATION/POSITION SKY/WX   TEMP    WIND        PRES    WAVE   SWELL
                          AIR SEA DIR/SP/G            HT/PER HT/PER
                          (F)     (DEG/KT/KT) (MB)    (FT/S) (FT/S)
28.5N   80.2W              72     150/ 14/ 16 1019.1
28.9N   78.5W              76 78  150/ 17/ 23 1020.6R   9/ 8   3/14
TRIDENT PIER               72 70  130/  8/ 11 1019.6R
28.4N   80.5W                 68                N/A     4/ 9   2/11

$$
FLZ050-056-061-142-242-148-248-149-249-151-251-155-255-
160-260-202300-
WEST CENTRAL FLORIDA
  
CITY           SKY/WX    TMP DP  RH WIND       PRES   REMARKS
CRYSTAL RIVER  FAIR      81  68  65 SW7G17    30.05S                  
INVERNESS      PTSUNNY   79  72  78 CALM      30.05R                  
BROOKSVILLE    FAIR      85  67  54 SW12      30.04R                  
CLEARWATER AIR PTSUNNY   79  64  61 S14G22    30.04S                  
ST PETE CLEARW CLOUDY    80  64  58 S18G26    30.04S                  
TAMPA INTL     PTSUNNY   79  67  66 S15       30.04S                  
TAMPA EXEC     CLOUDY    79  70  73 SW6       30.05R                  
PLANT CITY     CLOUDY    86  66  51 S10       30.06R                  
MACDILL AFB    PTSUNNY   76  69  78 S12       30.04R                  
PETER O KNIGHT CLOUDY    81  72  74 SW12      30.05R                  
ST PETERSBURG  CLOUDY    80  66  62 SW10      30.03R                  
SARASOTA       FAIR      83  67  58 MISG      30.03R                  
VENICE         PTSUNNY   82  68  61 S13G18    30.05S                  

STATION/POSITION SKY/WX   TEMP    WIND        PRES    WAVE   SWELL
                          AIR SEA DIR/SP/G            HT/PER HT/PER
                          (F)     (DEG/KT/KT) (MB)    (FT/S) (FT/S)
27.3N   84.2W                 72                N/A     5/ 7
CLEARWATER BEACH           73 71  200/ 14/ 19 1017.5R
MIDDLE TAMPA BAY           78     210/ 12/ 14 1017.3R
VENICE                     75 70  160/ 10/ 11   N/A

$$
FLZ066-069-070-075>078-162-262-165-265-202300-
SOUTHWEST FLORIDA AND KEYS
  
CITY           SKY/WX    TMP DP  RH WIND       PRES   REMARKS
PUNTA GORDA    PTSUNNY   81  67  62 SW9       30.06R                  
FT MYERS       LGT RAIN  80  69  69 SW7       30.03S                  
SOUTHWEST INTL CLOUDY    82  69  64 S3        30.03F                  
NAPLES         FAIR      83  68  60 S15       30.03R                  
MARCO ISLAND   FAIR     N/A N/A N/A S16       30.05R                  
IMMOKALEE      FAIR      84  64  51 E14       30.02R                  
MARATHON       FAIR      83  70  64 SE10G18   30.03S                  
KEY WEST NAS   FAIR      82  70  66 E18       30.02S                  
KEY WEST INTL  FAIR      81  72  74 SE17      30.03S                  

STATION/POSITION SKY/WX   TEMP    WIND        PRES    WAVE   SWELL
                          AIR SEA DIR/SP/G            HT/PER HT/PER
                          (F)     (DEG/KT/KT) (MB)    (FT/S) (FT/S)
NAPLES                     78 74  150/ 12/ 18 1017.0R
26.0N   85.6W              79 80  150/ 12/ 16 1015.5R   5/ 7   3/ 7
DRY TORTUGAS               79     130/ 14/ 15 1016.3S
SAND KEY                   78                 1016.6S
SOMBRERO KEY               78                 1016.4R
LONG KEY                   79 79  110/ 14/ 17 1017.1R
MOLASSES REEF              78 78  130/ 16/ 17 1018.0R

$$
FLZ067-068-071>074-168-172>174-202300-
SOUTHEAST FLORIDA 
  
CITY           SKY/WX    TMP DP  RH WIND       PRES   REMARKS
W PALM BEACH   PTSUNNY   77  67  71 SE12      30.08S                  
BOCA RATON     MOSUNNY   81  70  69 SE9G20    30.08S                  
FT LAUDER-EXEC FAIR      81  68  64 S10       30.07S                  
FT LAUDERDALE  FAIR      80  70  71 SE16      30.07R                  
POMPANO BEACH  FAIR      80  68  66 S10       30.08R                  
PEMBROKE PINES FAIR      81  65  58 SE14      30.08S                  
OPA LOCKA      FAIR      80  67  64 SE16      30.08R                  
MIAMI          FAIR      79  70  74 SE9G21    30.07S                  
WEST KENDALL   FAIR      81  68  64 SE12      30.07R                  
HOMESTEAD      PTSUNNY   80  70  70 SE9       30.06S                  

STATION/POSITION SKY/WX   TEMP    WIND        PRES    WAVE   SWELL
                          AIR SEA DIR/SP/G            HT/PER HT/PER
                          (F)     (DEG/KT/KT) (MB)    (FT/S) (FT/S)
PORT EVERGLADES            79     140/  9/ 11 1018.4
VIRGINIA KEY               79 79  110/  9/ 12 1017.8R
LAKE WORTH                 77 78  150/ 12/ 16 1019.7S
FOWEY ROCKS                78 78  130/ 13/ 14 1018.8R
SETTLEMENT POINT           79     150/  8/ 10 1019.5R

$$